Year,Month,Day,Hour,Minute,Value (Times are PST for temperature in C)
2018,06,15,00,00,13.50
2018,06,15,00,01,13.50
2018,06,15,00,02,13.50
2018,06,15,00,03,13.50
2018,06,15,00,04,13.40
2018,06,15,00,05,13.40
2018,06,15,00,06,13.40
2018,06,15,00,07,13.40
2018,06,15,00,08,13.30
2018,06,15,00,09,13.30
2018,06,15,00,10,13.30
2018,06,15,00,11,13.30
2018,06,15,00,12,13.30
2018,06,15,00,13,13.30
2018,06,15,00,14,13.30
2018,06,15,00,15,13.30
2018,06,15,00,16,13.30
2018,06,15,00,17,13.20
2018,06,15,00,18,13.20
2018,06,15,00,19,13.20
2018,06,15,00,20,13.20
2018,06,15,00,21,13.20
2018,06,15,00,22,13.20
2018,06,15,00,23,13.20
2018,06,15,00,24,13.20
2018,06,15,00,25,13.10
2018,06,15,00,26,13.10
2018,06,15,00,27,13.10
2018,06,15,00,28,13.10
2018,06,15,00,29,13.10
2018,06,15,00,30,13.10
2018,06,15,00,31,13.10
2018,06,15,00,32,13.10
2018,06,15,00,33,13.00
2018,06,15,00,34,13.00
2018,06,15,00,35,13.00
2018,06,15,00,36,13.00
2018,06,15,00,37,13.00
2018,06,15,00,38,13.10
2018,06,15,00,39,13.10
2018,06,15,00,40,13.10
2018,06,15,00,41,13.10
2018,06,15,00,42,13.10
2018,06,15,00,43,13.10
2018,06,15,00,44,13.20
2018,06,15,00,45,13.20
2018,06,15,00,46,13.20
2018,06,15,00,47,13.10
2018,06,15,00,48,13.10
2018,06,15,00,49,13.10
2018,06,15,00,50,13.10
2018,06,15,00,51,13.10
2018,06,15,00,52,13.10
2018,06,15,00,53,13.10
2018,06,15,00,54,13.10
2018,06,15,00,55,13.10
2018,06,15,00,56,13.10
2018,06,15,00,57,13.10
2018,06,15,00,58,13.00
2018,06,15,00,59,13.00
2018,06,15,01,00,13.00
2018,06,15,01,01,13.00
2018,06,15,01,02,13.00
2018,06,15,01,03,13.00
2018,06,15,01,04,13.00
2018,06,15,01,05,12.90
2018,06,15,01,06,12.90
2018,06,15,01,07,12.90
2018,06,15,01,08,12.90
2018,06,15,01,09,12.90
2018,06,15,01,10,12.90
2018,06,15,01,11,12.90
2018,06,15,01,12,12.90
2018,06,15,01,13,12.90
2018,06,15,01,14,12.90
2018,06,15,01,15,12.90
2018,06,15,01,16,12.90
2018,06,15,01,17,12.80
2018,06,15,01,18,12.80
2018,06,15,01,19,12.80
2018,06,15,01,20,12.80
2018,06,15,01,21,12.80
2018,06,15,01,22,12.80
2018,06,15,01,23,12.70
2018,06,15,01,24,12.70
2018,06,15,01,25,12.70
2018,06,15,01,26,12.70
2018,06,15,01,27,12.60
2018,06,15,01,28,12.60
2018,06,15,01,29,12.60
2018,06,15,01,30,12.60
2018,06,15,01,31,12.60
2018,06,15,01,32,12.50
2018,06,15,01,33,12.50
2018,06,15,01,34,12.50
2018,06,15,01,35,12.50
2018,06,15,01,36,12.50
2018,06,15,01,37,12.40
2018,06,15,01,38,12.40
2018,06,15,01,39,12.40
2018,06,15,01,40,12.40
2018,06,15,01,41,12.30
2018,06,15,01,42,12.30
2018,06,15,01,43,12.30
2018,06,15,01,44,12.30
2018,06,15,01,45,12.30
2018,06,15,01,46,12.30
2018,06,15,01,47,12.30
2018,06,15,01,48,12.30
2018,06,15,01,49,12.20
2018,06,15,01,50,12.20
2018,06,15,01,51,12.20
2018,06,15,01,52,12.20
2018,06,15,01,53,12.10
2018,06,15,01,54,12.10
2018,06,15,01,55,12.10
2018,06,15,01,56,12.00
2018,06,15,01,57,12.00
2018,06,15,01,58,12.00
2018,06,15,01,59,12.00
2018,06,15,02,00,12.00
2018,06,15,02,01,11.90
2018,06,15,02,02,11.90
2018,06,15,02,03,11.90
2018,06,15,02,04,11.90
2018,06,15,02,05,11.90
2018,06,15,02,06,11.90
2018,06,15,02,07,11.80
2018,06,15,02,08,11.80
2018,06,15,02,09,11.80
2018,06,15,02,10,11.80
2018,06,15,02,11,11.80
2018,06,15,02,12,11.80
2018,06,15,02,13,11.80
2018,06,15,02,14,11.80
2018,06,15,02,15,11.80
2018,06,15,02,16,11.70
2018,06,15,02,17,11.70
2018,06,15,02,18,11.70
2018,06,15,02,19,11.70
2018,06,15,02,20,11.60
2018,06,15,02,21,11.60
2018,06,15,02,22,11.60
2018,06,15,02,23,11.60
2018,06,15,02,24,11.60
2018,06,15,02,25,11.60
2018,06,15,02,26,11.60
2018,06,15,02,27,11.60
2018,06,15,02,28,11.60
2018,06,15,02,29,11.60
2018,06,15,02,30,11.60
2018,06,15,02,31,11.60
2018,06,15,02,32,11.60
2018,06,15,02,33,11.40
2018,06,15,02,34,11.40
2018,06,15,02,35,11.40
2018,06,15,02,36,11.40
2018,06,15,02,37,11.40
2018,06,15,02,38,11.40
2018,06,15,02,39,11.40
2018,06,15,02,40,11.30
2018,06,15,02,41,11.30
2018,06,15,02,42,11.30
2018,06,15,02,43,11.30
2018,06,15,02,44,11.20
2018,06,15,02,45,11.20
2018,06,15,02,46,11.20
2018,06,15,02,47,11.10
2018,06,15,02,48,11.10
2018,06,15,02,49,11.10
2018,06,15,02,50,11.10
2018,06,15,02,51,11.10
2018,06,15,02,52,11.10
2018,06,15,02,53,11.10
2018,06,15,02,54,11.00
2018,06,15,02,55,10.90
2018,06,15,02,56,10.90
2018,06,15,02,57,10.90
2018,06,15,02,58,10.90
2018,06,15,02,59,10.90
2018,06,15,03,00,10.90
2018,06,15,03,01,10.80
2018,06,15,03,02,10.80
2018,06,15,03,03,10.80
2018,06,15,03,04,10.70
2018,06,15,03,05,10.70
2018,06,15,03,06,10.70
2018,06,15,03,07,10.70
2018,06,15,03,08,10.70
2018,06,15,03,09,10.60
2018,06,15,03,10,10.60
2018,06,15,03,11,10.60
2018,06,15,03,12,10.60
2018,06,15,03,13,10.60
2018,06,15,03,14,10.60
2018,06,15,03,15,10.60
2018,06,15,03,16,10.60
2018,06,15,03,17,10.60
2018,06,15,03,18,10.60
2018,06,15,03,19,10.50
2018,06,15,03,20,10.40
2018,06,15,03,21,10.40
2018,06,15,03,22,10.40
2018,06,15,03,23,10.40
2018,06,15,03,24,10.40
2018,06,15,03,25,10.40
2018,06,15,03,26,10.40
2018,06,15,03,27,10.40
2018,06,15,03,28,10.40
2018,06,15,03,29,10.40
2018,06,15,03,30,10.40
2018,06,15,03,31,10.40
2018,06,15,03,32,10.40
2018,06,15,03,33,10.40
2018,06,15,03,34,10.40
2018,06,15,03,35,10.40
2018,06,15,03,36,10.40
2018,06,15,03,37,10.40
2018,06,15,03,38,10.40
2018,06,15,03,39,10.40
2018,06,15,03,40,10.40
2018,06,15,03,41,10.30
2018,06,15,03,42,10.30
2018,06,15,03,43,10.30
2018,06,15,03,44,10.30
2018,06,15,03,45,10.30
2018,06,15,03,46,10.20
2018,06,15,03,47,10.20
2018,06,15,03,48,10.20
2018,06,15,03,49,10.20
2018,06,15,03,50,10.20
2018,06,15,03,51,10.20
2018,06,15,03,52,10.20
2018,06,15,03,53,10.20
2018,06,15,03,54,10.20
2018,06,15,03,55,10.10
2018,06,15,03,56,10.10
2018,06,15,03,57,10.10
2018,06,15,03,58,10.10
2018,06,15,03,59,10.10
2018,06,15,04,00,10.10
2018,06,15,04,01,10.10
2018,06,15,04,02,10.10
2018,06,15,04,03,10.10
2018,06,15,04,04,10.10
2018,06,15,04,05,10.00
2018,06,15,04,06,9.90
2018,06,15,04,07,9.90
2018,06,15,04,08,9.90
2018,06,15,04,09,9.90
2018,06,15,04,10,9.90
2018,06,15,04,11,9.90
2018,06,15,04,12,9.90
2018,06,15,04,13,9.90
2018,06,15,04,14,9.90
2018,06,15,04,15,9.90
2018,06,15,04,16,9.90
2018,06,15,04,17,9.90
2018,06,15,04,18,9.90
2018,06,15,04,19,9.90
2018,06,15,04,20,9.80
2018,06,15,04,21,9.80
2018,06,15,04,22,9.80
2018,06,15,04,23,9.80
2018,06,15,04,24,9.80
2018,06,15,04,25,9.80
2018,06,15,04,26,9.80
2018,06,15,04,27,9.70
2018,06,15,04,28,9.70
2018,06,15,04,29,9.70
2018,06,15,04,30,9.70
2018,06,15,04,31,9.70
2018,06,15,04,32,9.70
2018,06,15,04,33,9.70
2018,06,15,04,34,9.70
2018,06,15,04,35,9.70
2018,06,15,04,36,9.70
2018,06,15,04,37,9.70
2018,06,15,04,38,9.70
2018,06,15,04,39,9.70
2018,06,15,04,40,9.70
2018,06,15,04,41,9.70
2018,06,15,04,42,9.70
2018,06,15,04,43,9.70
2018,06,15,04,44,9.70
2018,06,15,04,45,9.70
2018,06,15,04,46,9.70
2018,06,15,04,47,9.70
2018,06,15,04,48,9.70
2018,06,15,04,49,9.60
2018,06,15,04,50,9.60
2018,06,15,04,51,9.60
2018,06,15,04,52,9.60
2018,06,15,04,53,9.60
2018,06,15,04,54,9.60
2018,06,15,04,55,9.60
2018,06,15,04,56,9.60
2018,06,15,04,57,9.60
2018,06,15,04,58,9.60
2018,06,15,04,59,9.60
2018,06,15,05,00,9.60
2018,06,15,05,01,9.60
2018,06,15,05,02,9.60
2018,06,15,05,03,9.70
2018,06,15,05,04,9.70
2018,06,15,05,05,9.70
2018,06,15,05,06,9.70
2018,06,15,05,07,9.70
2018,06,15,05,08,9.70
2018,06,15,05,09,9.70
2018,06,15,05,10,9.70
2018,06,15,05,11,9.70
2018,06,15,05,12,9.70
2018,06,15,05,13,9.70
2018,06,15,05,14,9.70
2018,06,15,05,15,9.70
2018,06,15,05,16,9.70
2018,06,15,05,17,9.70
2018,06,15,05,18,9.70
2018,06,15,05,19,9.70
2018,06,15,05,20,9.70
2018,06,15,05,21,9.70
2018,06,15,05,22,9.70
2018,06,15,05,23,9.70
2018,06,15,05,24,9.70
2018,06,15,05,25,9.70
2018,06,15,05,26,9.70
2018,06,15,05,27,9.70
2018,06,15,05,28,9.70
2018,06,15,05,29,9.70
2018,06,15,05,30,9.70
2018,06,15,05,31,9.70
2018,06,15,05,32,9.70
2018,06,15,05,33,9.70
2018,06,15,05,34,9.70
2018,06,15,05,35,9.80
2018,06,15,05,36,9.80
2018,06,15,05,37,9.80
2018,06,15,05,38,9.80
2018,06,15,05,39,9.80
2018,06,15,05,40,9.80
2018,06,15,05,41,9.80
2018,06,15,05,42,9.80
2018,06,15,05,43,9.90
2018,06,15,05,44,9.90
2018,06,15,05,45,9.90
2018,06,15,05,46,9.90
2018,06,15,05,47,9.90
2018,06,15,05,48,9.90
2018,06,15,05,49,9.90
2018,06,15,05,50,9.90
2018,06,15,05,51,9.90
2018,06,15,05,52,10.10
2018,06,15,05,53,10.10
2018,06,15,05,54,10.10
2018,06,15,05,55,10.10
2018,06,15,05,56,10.10
2018,06,15,05,57,10.10
2018,06,15,05,58,10.10
2018,06,15,05,59,10.10
2018,06,15,06,00,10.10
2018,06,15,06,01,10.10
2018,06,15,06,02,10.10
2018,06,15,06,03,10.10
2018,06,15,06,04,10.10
2018,06,15,06,05,10.20
2018,06,15,06,06,10.20
2018,06,15,06,07,10.20
2018,06,15,06,08,10.20
2018,06,15,06,09,10.20
2018,06,15,06,10,10.30
2018,06,15,06,11,10.30
2018,06,15,06,12,10.30
2018,06,15,06,13,10.40
2018,06,15,06,14,10.40
2018,06,15,06,15,10.40
2018,06,15,06,16,10.40
2018,06,15,06,17,10.40
2018,06,15,06,18,10.40
2018,06,15,06,19,10.40
2018,06,15,06,20,10.50
2018,06,15,06,21,10.60
2018,06,15,06,22,10.60
2018,06,15,06,23,10.60
2018,06,15,06,24,10.60
2018,06,15,06,25,10.60
2018,06,15,06,26,10.60
2018,06,15,06,27,10.60
2018,06,15,06,28,10.60
2018,06,15,06,29,10.70
2018,06,15,06,30,10.70
2018,06,15,06,31,10.70
2018,06,15,06,32,10.80
2018,06,15,06,33,10.80
2018,06,15,06,34,10.80
2018,06,15,06,35,10.90
2018,06,15,06,36,10.90
2018,06,15,06,37,10.90
2018,06,15,06,38,10.90
2018,06,15,06,39,10.90
2018,06,15,06,40,10.90
2018,06,15,06,41,11.00
2018,06,15,06,42,11.10
2018,06,15,06,43,11.10
2018,06,15,06,44,11.10
2018,06,15,06,45,11.10
2018,06,15,06,46,11.10
2018,06,15,06,47,11.20
2018,06,15,06,48,11.20
2018,06,15,06,49,11.20
2018,06,15,06,50,11.30
2018,06,15,06,51,11.30
2018,06,15,06,52,11.30
2018,06,15,06,53,11.40
2018,06,15,06,54,11.40
2018,06,15,06,55,11.40
2018,06,15,06,56,11.40
2018,06,15,06,57,11.40
2018,06,15,06,58,11.50
2018,06,15,06,59,11.60
2018,06,15,07,00,11.60
2018,06,15,07,01,11.60
2018,06,15,07,02,11.60
2018,06,15,07,03,11.60
2018,06,15,07,04,11.60
2018,06,15,07,05,11.60
2018,06,15,07,06,11.60
2018,06,15,07,07,11.60
2018,06,15,07,08,11.60
2018,06,15,07,09,11.60
2018,06,15,07,10,11.60
2018,06,15,07,11,11.70
2018,06,15,07,12,11.70
2018,06,15,07,13,11.70
2018,06,15,07,14,11.70
2018,06,15,07,15,11.70
2018,06,15,07,16,11.80
2018,06,15,07,17,11.80
2018,06,15,07,18,11.80
2018,06,15,07,19,11.80
2018,06,15,07,20,11.80
2018,06,15,07,21,11.80
2018,06,15,07,22,11.80
2018,06,15,07,23,11.80
2018,06,15,07,24,11.80
2018,06,15,07,25,11.90
2018,06,15,07,26,11.90
2018,06,15,07,27,11.90
2018,06,15,07,28,12.00
2018,06,15,07,29,12.00
2018,06,15,07,30,12.00
2018,06,15,07,31,12.00
2018,06,15,07,32,12.10
2018,06,15,07,33,12.10
2018,06,15,07,34,12.10
2018,06,15,07,35,12.20
2018,06,15,07,36,12.20
2018,06,15,07,37,12.20
2018,06,15,07,38,12.20
2018,06,15,07,39,12.20
2018,06,15,07,40,12.30
2018,06,15,07,41,12.30
2018,06,15,07,42,12.30
2018,06,15,07,43,12.30
2018,06,15,07,44,12.30
2018,06,15,07,45,12.30
2018,06,15,07,46,12.30
2018,06,15,07,47,12.40
2018,06,15,07,48,12.40
2018,06,15,07,49,12.40
2018,06,15,07,50,12.40
2018,06,15,07,51,12.50
2018,06,15,07,52,12.50
2018,06,15,07,53,12.50
2018,06,15,07,54,12.60
2018,06,15,07,55,12.60
2018,06,15,07,56,12.60
2018,06,15,07,57,12.70
2018,06,15,07,58,12.70
2018,06,15,07,59,12.80
2018,06,15,08,00,12.80
2018,06,15,08,01,12.80
2018,06,15,08,02,12.80
2018,06,15,08,03,12.80
2018,06,15,08,04,12.80
2018,06,15,08,05,12.80
2018,06,15,08,06,12.90
2018,06,15,08,07,12.90
2018,06,15,08,08,12.90
2018,06,15,08,09,13.00
2018,06,15,08,10,13.00
2018,06,15,08,11,13.00
2018,06,15,08,12,13.00
2018,06,15,08,13,13.10
2018,06,15,08,14,13.10
2018,06,15,08,15,13.10
2018,06,15,08,16,13.10
2018,06,15,08,17,13.20
2018,06,15,08,18,13.20
2018,06,15,08,19,13.20
2018,06,15,08,20,13.30
2018,06,15,08,21,13.30
2018,06,15,08,22,13.30
2018,06,15,08,23,13.30
2018,06,15,08,24,13.30
2018,06,15,08,25,13.30
2018,06,15,08,26,13.40
2018,06,15,08,27,13.40
2018,06,15,08,28,13.40
2018,06,15,08,29,13.50
2018,06,15,08,30,13.50
2018,06,15,08,31,13.50
2018,06,15,08,32,13.50
2018,06,15,08,33,13.60
2018,06,15,08,34,13.60
2018,06,15,08,35,13.60
2018,06,15,08,36,13.60
2018,06,15,08,37,13.60
2018,06,15,08,38,13.60
2018,06,15,08,39,13.60
2018,06,15,08,40,13.70
2018,06,15,08,41,13.70
2018,06,15,08,42,13.70
2018,06,15,08,43,13.80
2018,06,15,08,44,13.80
2018,06,15,08,45,13.90
2018,06,15,08,46,13.90
2018,06,15,08,47,14.00
2018,06,15,08,48,14.10
2018,06,15,08,49,14.20
2018,06,15,08,50,14.30
2018,06,15,08,51,14.40
2018,06,15,08,52,14.40
2018,06,15,08,53,14.50
2018,06,15,08,54,14.50
2018,06,15,08,55,14.50
2018,06,15,08,56,14.50
2018,06,15,08,57,14.50
2018,06,15,08,58,14.50
2018,06,15,08,59,14.60
2018,06,15,09,00,14.60
2018,06,15,09,01,14.70
2018,06,15,09,02,14.70
2018,06,15,09,03,14.80
2018,06,15,09,04,14.80
2018,06,15,09,05,14.80
2018,06,15,09,06,14.90
2018,06,15,09,07,14.90
2018,06,15,09,08,15.00
2018,06,15,09,09,15.00
2018,06,15,09,10,15.10
2018,06,15,09,11,15.10
2018,06,15,09,12,15.10
2018,06,15,09,13,15.10
2018,06,15,09,14,15.10
2018,06,15,09,15,15.10
2018,06,15,09,16,15.10
2018,06,15,09,17,15.10
2018,06,15,09,18,15.10
2018,06,15,09,19,15.10
2018,06,15,09,20,15.20
2018,06,15,09,21,15.20
2018,06,15,09,22,15.20
2018,06,15,09,23,15.30
2018,06,15,09,24,15.30
2018,06,15,09,25,15.30
2018,06,15,09,26,15.40
2018,06,15,09,27,15.50
2018,06,15,09,28,15.50
2018,06,15,09,29,15.60
2018,06,15,09,30,15.70
2018,06,15,09,31,15.80
2018,06,15,09,32,15.90
2018,06,15,09,33,16.10
2018,06,15,09,34,16.20
2018,06,15,09,35,16.30
2018,06,15,09,36,16.40
2018,06,15,09,37,16.40
2018,06,15,09,38,16.40
2018,06,15,09,39,16.40
2018,06,15,09,40,16.40
2018,06,15,09,41,16.40
2018,06,15,09,42,16.40
2018,06,15,09,43,16.50
2018,06,15,09,44,16.60
2018,06,15,09,45,16.60
2018,06,15,09,46,16.70
2018,06,15,09,47,16.80
2018,06,15,09,48,16.70
2018,06,15,09,49,16.80
2018,06,15,09,50,16.80
2018,06,15,09,51,16.90
2018,06,15,09,52,16.90
2018,06,15,09,53,16.90
2018,06,15,09,54,17.00
2018,06,15,09,55,17.00
2018,06,15,09,56,17.10
2018,06,15,09,57,17.20
2018,06,15,09,58,17.30
2018,06,15,09,59,17.30
2018,06,15,10,00,17.30
2018,06,15,10,01,17.30
2018,06,15,10,02,17.30
2018,06,15,10,03,17.30
2018,06,15,10,04,17.30
2018,06,15,10,05,17.10
2018,06,15,10,06,17.00
2018,06,15,10,07,16.90
2018,06,15,10,08,16.80
2018,06,15,10,09,16.70
2018,06,15,10,10,16.50
2018,06,15,10,11,16.40
2018,06,15,10,12,16.40
2018,06,15,10,13,16.40
2018,06,15,10,14,16.30
2018,06,15,10,15,16.30
2018,06,15,10,16,16.30
2018,06,15,10,17,16.40
2018,06,15,10,18,16.30
2018,06,15,10,19,16.20
2018,06,15,10,20,16.10
2018,06,15,10,21,16.10
2018,06,15,10,22,16.00
2018,06,15,10,23,15.90
2018,06,15,10,24,15.90
2018,06,15,10,25,15.80
2018,06,15,10,26,15.60
2018,06,15,10,27,15.50
2018,06,15,10,28,15.50
2018,06,15,10,29,15.50
2018,06,15,10,30,15.50
2018,06,15,10,31,15.50
2018,06,15,10,32,15.50
2018,06,15,10,33,15.50
2018,06,15,10,34,15.50
2018,06,15,10,35,15.40
2018,06,15,10,36,15.40
2018,06,15,10,37,15.30
2018,06,15,10,38,15.30
2018,06,15,10,39,15.30
2018,06,15,10,40,15.30
2018,06,15,10,41,15.20
2018,06,15,10,42,15.30
2018,06,15,10,43,15.30
2018,06,15,10,44,15.30
2018,06,15,10,45,15.30
2018,06,15,10,46,15.40
2018,06,15,10,47,15.50
2018,06,15,10,48,15.50
2018,06,15,10,49,15.60
2018,06,15,10,50,15.60
2018,06,15,10,51,15.60
2018,06,15,10,52,15.60
2018,06,15,10,53,15.50
2018,06,15,10,54,15.50
2018,06,15,10,55,15.50
2018,06,15,10,56,15.40
2018,06,15,10,57,15.40
2018,06,15,10,58,15.40
2018,06,15,10,59,15.50
2018,06,15,11,00,15.60
2018,06,15,11,01,15.70
2018,06,15,11,02,15.90
2018,06,15,11,03,16.00
2018,06,15,11,04,16.10
2018,06,15,11,05,16.10
2018,06,15,11,06,16.10
2018,06,15,11,07,16.20
2018,06,15,11,08,16.30
2018,06,15,11,09,16.30
2018,06,15,11,10,16.10
2018,06,15,11,11,16.00
2018,06,15,11,12,15.80
2018,06,15,11,13,15.70
2018,06,15,11,14,15.70
2018,06,15,11,15,15.70
2018,06,15,11,16,15.60
2018,06,15,11,17,15.60
2018,06,15,11,18,15.60
2018,06,15,11,19,15.60
2018,06,15,11,20,15.60
2018,06,15,11,21,15.70
2018,06,15,11,22,15.80
2018,06,15,11,23,15.90
2018,06,15,11,24,16.00
2018,06,15,11,25,16.10
2018,06,15,11,26,16.10
2018,06,15,11,27,16.10
2018,06,15,11,28,16.10
2018,06,15,11,29,16.10
2018,06,15,11,30,16.10
2018,06,15,11,31,16.10
2018,06,15,11,32,16.10
2018,06,15,11,33,16.10
2018,06,15,11,34,16.10
2018,06,15,11,35,16.10
2018,06,15,11,36,16.10
2018,06,15,11,37,16.10
2018,06,15,11,38,16.10
2018,06,15,11,39,16.00
2018,06,15,11,40,15.90
2018,06,15,11,41,15.90
2018,06,15,11,42,15.80
2018,06,15,11,43,15.80
2018,06,15,11,44,15.80
2018,06,15,11,45,15.80
2018,06,15,11,46,15.80
2018,06,15,11,47,15.80
2018,06,15,11,48,15.80
2018,06,15,11,49,15.80
2018,06,15,11,50,15.80
2018,06,15,11,51,15.80
2018,06,15,11,52,15.80
2018,06,15,11,53,15.80
2018,06,15,11,54,15.80
2018,06,15,11,55,15.80
2018,06,15,11,56,15.80
2018,06,15,11,57,15.80
2018,06,15,11,58,15.80
2018,06,15,13,39,16.90
2018,06,15,13,40,16.90
2018,06,15,13,41,17.00
2018,06,15,13,42,17.10
2018,06,15,13,43,17.10
2018,06,15,13,44,17.20
2018,06,15,13,45,17.30
2018,06,15,13,46,17.30
2018,06,15,13,47,17.20
2018,06,15,13,48,17.30
2018,06,15,13,49,17.40
2018,06,15,13,50,17.40
2018,06,15,13,51,17.40
2018,06,15,13,52,17.40
2018,06,15,13,53,17.30
2018,06,15,13,54,17.30
2018,06,15,13,55,17.40
2018,06,15,13,56,17.40
2018,06,15,13,57,17.30
2018,06,15,13,58,17.50
2018,06,15,13,59,17.60
2018,06,15,14,00,17.80
2018,06,15,14,01,17.90
2018,06,15,14,02,17.90
2018,06,15,14,03,17.90
2018,06,15,14,04,17.90
2018,06,15,14,05,17.90
2018,06,15,14,06,17.90
2018,06,15,14,07,17.70
2018,06,15,14,08,17.70
2018,06,15,14,09,17.80
2018,06,15,14,10,17.80
2018,06,15,14,11,17.70
2018,06,15,14,12,17.60
2018,06,15,14,13,17.60
2018,06,15,14,14,17.60
2018,06,15,14,15,17.50
2018,06,15,14,16,17.40
2018,06,15,14,17,17.30
2018,06,15,14,18,17.30
2018,06,15,14,19,17.30
2018,06,15,14,20,17.30
2018,06,15,14,21,17.30
2018,06,15,14,22,17.40
2018,06,15,14,23,17.40
2018,06,15,14,24,17.40
2018,06,15,14,25,17.40
2018,06,15,14,26,17.50
2018,06,15,14,27,17.50
2018,06,15,14,28,17.60
2018,06,15,14,29,17.70
2018,06,15,14,30,17.70
2018,06,15,14,31,17.60
2018,06,15,14,32,17.50
2018,06,15,14,33,17.50
2018,06,15,14,34,17.40
2018,06,15,14,35,17.40
2018,06,15,14,36,17.30
2018,06,15,14,37,17.30
2018,06,15,14,38,17.30
2018,06,15,14,39,17.50
2018,06,15,14,40,17.70
2018,06,15,14,41,17.90
2018,06,15,14,42,17.90
2018,06,15,14,43,17.90
2018,06,15,14,44,17.90
2018,06,15,14,45,17.90
2018,06,15,14,46,17.90
2018,06,15,14,47,18.00
2018,06,15,14,48,18.10
2018,06,15,14,49,18.10
2018,06,15,14,50,18.10
2018,06,15,14,51,18.10
2018,06,15,14,52,18.10
2018,06,15,14,53,18.00
2018,06,15,14,54,17.90
2018,06,15,14,55,17.90
2018,06,15,14,56,17.90
2018,06,15,14,57,17.80
2018,06,15,14,58,17.80
2018,06,15,14,59,17.80
2018,06,15,15,00,17.70
2018,06,15,15,01,17.60
2018,06,15,15,02,17.60
2018,06,15,15,03,17.60
2018,06,15,15,04,17.60
2018,06,15,15,05,17.50
2018,06,15,15,06,17.50
2018,06,15,15,07,17.40
2018,06,15,15,08,17.40
2018,06,15,15,09,17.40
2018,06,15,15,10,17.40
2018,06,15,15,11,17.50
2018,06,15,15,12,17.50
2018,06,15,15,13,17.60
2018,06,15,15,14,17.60
2018,06,15,15,15,17.70
2018,06,15,15,16,17.70
2018,06,15,15,17,17.70
2018,06,15,15,18,17.70
2018,06,15,15,19,17.70
2018,06,15,15,20,17.80
2018,06,15,15,21,18.00
2018,06,15,15,22,18.20
2018,06,15,15,23,18.30
2018,06,15,15,24,18.50
2018,06,15,15,25,18.70
2018,06,15,15,26,18.70
2018,06,15,15,27,18.90
2018,06,15,15,28,18.90
2018,06,15,15,29,18.90
2018,06,15,15,30,19.00
2018,06,15,15,31,19.00
2018,06,15,15,32,18.90
2018,06,15,15,33,18.90
2018,06,15,15,34,19.00
2018,06,15,15,35,19.10
2018,06,15,15,36,19.10
2018,06,15,15,37,19.10
2018,06,15,15,38,19.10
2018,06,15,15,39,19.10
2018,06,15,15,40,19.10
2018,06,15,15,41,19.10
2018,06,15,15,42,19.10
2018,06,15,15,43,19.10
2018,06,15,15,44,19.20
2018,06,15,15,45,19.20
2018,06,15,15,46,19.40
2018,06,15,15,47,19.40
2018,06,15,15,48,19.50
2018,06,15,15,49,19.60
2018,06,15,15,50,19.50
2018,06,15,15,51,19.40
2018,06,15,15,52,19.20
2018,06,15,15,53,19.00
2018,06,15,15,54,18.90
2018,06,15,15,55,18.80
2018,06,15,15,56,18.70
2018,06,15,15,57,18.70
2018,06,15,15,58,18.80
2018,06,15,15,59,18.80
2018,06,15,16,00,18.90
2018,06,15,16,01,18.90
2018,06,15,16,02,18.90
2018,06,15,16,03,18.90
2018,06,15,16,04,18.90
2018,06,15,16,05,18.90
2018,06,15,16,06,18.90
2018,06,15,16,07,18.90
2018,06,15,16,08,18.90
2018,06,15,16,09,18.90
2018,06,15,16,10,18.90
2018,06,15,16,11,18.90
2018,06,15,16,12,18.90
2018,06,15,16,13,18.80
2018,06,15,16,14,18.80
2018,06,15,16,15,18.70
2018,06,15,16,16,18.60
2018,06,15,16,17,18.60
2018,06,15,16,18,18.60
2018,06,15,16,19,18.50
2018,06,15,16,20,18.50
2018,06,15,16,21,18.50
2018,06,15,16,22,18.40
2018,06,15,16,23,18.40
2018,06,15,16,24,18.30
2018,06,15,16,25,18.30
2018,06,15,16,26,18.30
2018,06,15,16,27,18.30
2018,06,15,16,28,18.30
2018,06,15,16,29,18.20
2018,06,15,16,30,18.20
2018,06,15,16,31,18.20
2018,06,15,16,32,18.10
2018,06,15,16,33,18.10
2018,06,15,16,34,18.10
2018,06,15,16,35,18.20
2018,06,15,16,36,18.30
2018,06,15,16,37,18.30
2018,06,15,16,38,18.40
2018,06,15,16,39,18.40
2018,06,15,16,40,18.40
2018,06,15,16,41,18.60
2018,06,15,16,42,18.70
2018,06,15,16,43,18.80
2018,06,15,16,44,18.80
2018,06,15,16,45,18.90
2018,06,15,16,46,18.90
2018,06,15,16,47,18.90
2018,06,15,16,48,18.90
2018,06,15,16,49,18.90
2018,06,15,16,50,18.90
2018,06,15,16,51,18.90
2018,06,15,16,52,18.90
2018,06,15,16,53,19.00
2018,06,15,16,54,19.10
2018,06,15,16,55,19.20
2018,06,15,16,56,19.30
2018,06,15,16,57,19.20
2018,06,15,16,58,19.20
2018,06,15,16,59,19.20
2018,06,15,17,00,19.30
2018,06,15,17,01,19.30
2018,06,15,17,02,19.20
2018,06,15,17,03,19.00
2018,06,15,17,04,18.90
2018,06,15,17,05,18.90
2018,06,15,17,06,18.80
2018,06,15,17,07,18.70
2018,06,15,17,08,18.70
2018,06,15,17,09,18.70
2018,06,15,17,10,18.70
2018,06,15,17,11,18.70
2018,06,15,17,12,18.70
2018,06,15,17,13,18.70
2018,06,15,17,14,18.70
2018,06,15,17,15,18.80
2018,06,15,17,16,18.80
2018,06,15,17,17,18.90
2018,06,15,17,18,18.90
2018,06,15,17,19,18.90
2018,06,15,17,20,18.90
2018,06,15,17,21,18.90
2018,06,15,17,22,19.00
2018,06,15,17,23,19.00
2018,06,15,17,24,18.90
2018,06,15,17,25,18.90
2018,06,15,17,26,18.90
2018,06,15,17,27,18.90
2018,06,15,17,28,18.90
2018,06,15,17,29,18.90
2018,06,15,17,30,18.80
2018,06,15,17,31,18.80
2018,06,15,17,32,18.80
2018,06,15,17,33,18.80
2018,06,15,17,34,18.80
2018,06,15,17,35,18.80
2018,06,15,17,36,18.80
2018,06,15,17,37,18.80
2018,06,15,17,38,18.80
2018,06,15,17,39,18.80
2018,06,15,17,40,18.90
2018,06,15,17,41,18.90
2018,06,15,17,42,18.90
2018,06,15,17,43,18.90
2018,06,15,17,44,19.00
2018,06,15,17,45,19.10
2018,06,15,17,46,19.10
2018,06,15,17,47,19.10
2018,06,15,17,48,19.10
2018,06,15,17,49,19.10
2018,06,15,17,50,19.20
2018,06,15,17,51,19.30
2018,06,15,17,52,19.30
2018,06,15,17,53,19.30
2018,06,15,17,54,19.20
2018,06,15,17,55,19.20
2018,06,15,17,56,19.20
2018,06,15,17,57,19.30
2018,06,15,17,58,19.30
2018,06,15,17,59,19.40
2018,06,15,18,00,19.50
2018,06,15,18,01,19.60
2018,06,15,18,02,19.60
2018,06,15,18,03,19.60
2018,06,15,18,04,19.60
2018,06,15,18,05,19.60
2018,06,15,18,06,19.70
2018,06,15,18,07,19.70
2018,06,15,18,08,19.70
2018,06,15,18,09,19.70
2018,06,15,18,10,19.70
2018,06,15,18,11,19.70
2018,06,15,18,12,19.70
2018,06,15,18,13,19.70
2018,06,15,18,14,19.60
2018,06,15,18,15,19.60
2018,06,15,18,16,19.50
2018,06,15,18,17,19.50
2018,06,15,18,18,19.40
2018,06,15,18,19,19.40
2018,06,15,18,20,19.40
2018,06,15,18,21,19.40
2018,06,15,18,22,19.30
2018,06,15,18,23,19.30
2018,06,15,18,24,19.30
2018,06,15,18,25,19.30
2018,06,15,18,26,19.30
2018,06,15,18,27,19.30
2018,06,15,18,28,19.40
2018,06,15,18,29,19.40
2018,06,15,18,30,19.40
2018,06,15,18,31,19.40
2018,06,15,18,32,19.40
2018,06,15,18,33,19.40
2018,06,15,18,34,19.50
2018,06,15,18,35,19.60
2018,06,15,18,36,19.60
2018,06,15,18,37,19.70
2018,06,15,18,38,19.80
2018,06,15,18,39,19.70
2018,06,15,18,40,19.70
2018,06,15,18,41,19.80
2018,06,15,18,42,19.80
2018,06,15,18,43,19.80
2018,06,15,18,44,19.80
2018,06,15,18,45,19.80
2018,06,15,18,46,19.80
2018,06,15,18,47,19.80
2018,06,15,18,48,19.90
2018,06,15,18,49,19.90
2018,06,15,18,50,19.90
2018,06,15,18,51,19.80
2018,06,15,18,52,19.80
2018,06,15,18,53,19.70
2018,06,15,18,54,19.70
2018,06,15,18,55,19.70
2018,06,15,18,56,19.60
2018,06,15,18,57,19.60
2018,06,15,18,58,19.60
2018,06,15,18,59,19.50
2018,06,15,19,00,19.50
2018,06,15,19,01,19.50
2018,06,15,19,02,19.50
2018,06,15,19,03,19.50
2018,06,15,19,04,19.40